ARG1844 SAWC-SAWH

Flight info

Callsign ARG1844
Flight time 1h 1m
Altitude 37000
Route DEVIS2D DEVIS UW52 GAL UW42 GRA DCT DABLI DABLI1Q
Aircraft B38M/M-SDE1FGHILORVWXY/HB1

Departure

Time 2026-04-26 20:18
Airport El Calafate - Commander Armando Tola International Airport (SAWC)

Arrival

Time 2026-04-26 21:19
Airport Ushuaia - Malvinas Argentinas International Airport (SAWH)
Time Latitude Longitude Altitude Speed Heading
2026-04-26 19:33 -50.28325 -72.05314 643 ft 0 kts 232°
2026-04-26 20:03 -50.28327 -72.05332 643 ft 3 kts 270°
2026-04-26 20:03 -50.28315 -72.05386 643 ft 7 kts 303°
2026-04-26 20:03 -50.28280 -72.05409 643 ft 6 kts
2026-04-26 20:03 -50.28237 -72.05406 643 ft 7 kts
2026-04-26 20:04 -50.28174 -72.05409 644 ft 11 kts 358°
2026-04-26 20:04 -50.28085 -72.05415 644 ft 10 kts
2026-04-26 20:04 -50.28030 -72.05369 645 ft 9 kts 67°
2026-04-26 20:04 -50.28023 -72.05254 645 ft 13 kts 86°
2026-04-26 20:05 -50.28006 -72.05077 645 ft 20 kts 86°
2026-04-26 20:05 -50.27991 -72.04822 647 ft 26 kts 98°
2026-04-26 20:05 -50.27968 -72.04544 646 ft 26 kts 86°
2026-04-26 20:05 -50.27951 -72.04286 644 ft 24 kts 82°
2026-04-26 20:06 -50.27938 -72.04023 645 ft 25 kts 85°
2026-04-26 20:06 -50.27933 -72.03766 643 ft 21 kts 99°
2026-04-26 20:06 -50.27952 -72.03589 644 ft 15 kts 78°
2026-04-26 20:06 -50.27937 -72.03569 644 ft 2 kts 351°
2026-04-26 20:07 -50.27921 -72.03605 646 ft 6 kts 276°
2026-04-26 20:07 -50.28326 -72.05315 643 ft 0 kts 232°
2026-04-26 20:07 -50.28326 -72.05319 643 ft 1 kts 250°
2026-04-26 20:08 -50.28313 -72.05362 643 ft 8 kts 320°
2026-04-26 20:08 -50.28222 -72.05396 643 ft 17 kts 360°
2026-04-26 20:08 -50.28128 -72.05418 644 ft 6 kts 355°
2026-04-26 20:08 -50.28121 -72.05418 644 ft 0 kts 358°
2026-04-26 20:11 -50.28118 -72.05419 644 ft 1 kts 358°
2026-04-26 20:11 -50.28110 -72.05419 646 ft 1 kts 359°
2026-04-26 20:15 -50.28103 -72.05419 644 ft 5 kts 359°
2026-04-26 20:15 -50.28031 -72.05371 645 ft 18 kts 56°
2026-04-26 20:15 -50.28006 -72.05106 645 ft 32 kts 83°
2026-04-26 20:16 -50.27983 -72.04721 646 ft 39 kts 85°
2026-04-26 20:16 -50.27961 -72.04291 644 ft 40 kts 87°
2026-04-26 20:16 -50.27935 -72.03872 642 ft 36 kts 84°
2026-04-26 20:16 -50.27955 -72.03602 644 ft 15 kts 62°
2026-04-26 20:17 -50.27916 -72.03608 644 ft 5 kts 278°
2026-04-26 20:17 -50.27925 -72.03742 643 ft 24 kts 264°
2026-04-26 20:17 -50.27969 -72.04432 645 ft 103 kts 265°
2026-04-26 20:17 -50.28026 -72.05334 648 ft 148 kts 263°
2026-04-26 20:18 -50.28194 -72.07831 1275 ft 186 kts 265°
2026-04-26 20:18 -50.28323 -72.09915 2185 ft 203 kts 266°
2026-04-26 20:18 -50.28474 -72.12158 3147 ft 217 kts 268°
2026-04-26 20:18 -50.28628 -72.14625 3954 ft 236 kts 268°
2026-04-26 20:19 -50.28741 -72.17267 4869 ft 253 kts 269°
2026-04-26 20:19 -50.28854 -72.20020 6155 ft 249 kts 267°
2026-04-26 20:19 -50.29026 -72.22690 6989 ft 250 kts 267°
2026-04-26 20:19 -50.29192 -72.25390 8010 ft 248 kts 268°
2026-04-26 20:20 -50.29354 -72.28082 9002 ft 250 kts 268°
2026-04-26 20:20 -50.29512 -72.30768 9922 ft 252 kts 268°
2026-04-26 20:20 -50.29672 -72.33506 10774 ft 254 kts 268°
2026-04-26 20:20 -50.29830 -72.36271 11624 ft 256 kts 268°
2026-04-26 20:21 -50.30132 -72.39020 12451 ft 261 kts 252°
2026-04-26 20:21 -50.31148 -72.41419 13306 ft 274 kts 230°
2026-04-26 20:21 -50.32747 -72.43161 14051 ft 285 kts 218°
2026-04-26 20:21 -50.34452 -72.44776 14723 ft 288 kts 218°
2026-04-26 20:22 -50.36231 -72.46313 15240 ft 304 kts 208°
2026-04-26 20:22 -50.38421 -72.46839 15498 ft 339 kts 181°
2026-04-26 20:22 -50.40712 -72.45689 15900 ft 367 kts 154°
2026-04-26 20:22 -50.42604 -72.42855 16358 ft 390 kts 126°
2026-04-26 20:23 -50.43609 -72.38861 16923 ft 400 kts 104°
2026-04-26 20:23 -50.44333 -72.34630 17517 ft 403 kts 110°
2026-04-26 20:23 -50.45196 -72.30432 18176 ft 405 kts 110°
2026-04-26 20:23 -50.46080 -72.26234 18717 ft 407 kts 111°
2026-04-26 20:24 -50.46984 -72.21999 19232 ft 410 kts 111°
2026-04-26 20:24 -50.47898 -72.17747 19778 ft 413 kts 111°
2026-04-26 20:24 -50.48822 -72.13456 20266 ft 416 kts 111°
2026-04-26 20:24 -50.49738 -72.09196 20747 ft 419 kts 111°
2026-04-26 20:25 -50.50673 -72.04841 21202 ft 423 kts 111°
2026-04-26 20:25 -50.51296 -72.01933 21534 ft 424 kts 111°
2026-04-26 20:25 -50.52558 -71.96034 22186 ft 428 kts 111°
2026-04-26 20:25 -50.53508 -71.91580 22668 ft 431 kts 111°
2026-04-26 20:26 -50.54459 -71.87104 23141 ft 433 kts 111°
2026-04-26 20:26 -50.55416 -71.82604 23597 ft 436 kts 111°
2026-04-26 20:26 -50.56484 -71.78206 23938 ft 435 kts 122°
2026-04-26 20:26 -50.58216 -71.74361 24309 ft 430 kts 135°
2026-04-26 20:27 -50.60168 -71.70761 24652 ft 435 kts 134°
2026-04-26 20:27 -50.62155 -71.67139 24981 ft 438 kts 135°
2026-04-26 20:27 -50.64164 -71.63516 25334 ft 440 kts 135°
2026-04-26 20:27 -50.66191 -71.59881 25709 ft 443 kts 135°
2026-04-26 20:28 -50.68226 -71.56235 26072 ft 445 kts 135°
2026-04-26 20:28 -50.70280 -71.52556 26426 ft 447 kts 135°
2026-04-26 20:28 -50.72310 -71.48914 26765 ft 449 kts 135°
2026-04-26 20:28 -50.74378 -71.45199 27095 ft 452 kts 135°
2026-04-26 20:29 -50.76455 -71.41462 27434 ft 454 kts 134°
2026-04-26 20:29 -50.78545 -71.37697 27786 ft 456 kts 134°
2026-04-26 20:29 -50.80640 -71.33916 28124 ft 458 kts 134°
2026-04-26 20:29 -50.82745 -71.30111 28464 ft 460 kts 134°
2026-04-26 20:30 -50.84859 -71.26286 28772 ft 463 kts 134°
2026-04-26 20:30 -50.86980 -71.22442 29071 ft 465 kts 134°
2026-04-26 20:30 -50.89109 -71.18577 29377 ft 467 kts 134°
2026-04-26 20:30 -50.91220 -71.14741 29672 ft 469 kts 134°
2026-04-26 20:31 -50.93368 -71.10829 29968 ft 471 kts 134°
2026-04-26 20:31 -50.95523 -71.06901 30216 ft 473 kts 134°
2026-04-26 20:31 -50.97688 -71.02949 30501 ft 475 kts 134°
2026-04-26 20:31 -50.99829 -70.98944 30738 ft 478 kts 129°
2026-04-26 20:32 -51.01494 -70.94359 31002 ft 483 kts 112°
2026-04-26 20:32 -51.02355 -70.89194 31244 ft 487 kts 98°
2026-04-26 20:32 -51.02823 -70.83847 31430 ft 490 kts 98°
2026-04-26 20:32 -51.03277 -70.78554 31655 ft 491 kts 98°
2026-04-26 20:33 -51.03716 -70.73166 31904 ft 493 kts 98°
2026-04-26 20:33 -51.04140 -70.67770 32182 ft 493 kts 98°
2026-04-26 20:33 -51.04561 -70.62347 32401 ft 495 kts 98°
2026-04-26 20:33 -51.04979 -70.56917 32637 ft 496 kts 98°
2026-04-26 20:34 -51.05687 -70.51566 32928 ft 493 kts 112°
2026-04-26 20:34 -51.07197 -70.46759 33264 ft 484 kts 128°
2026-04-26 20:34 -51.09182 -70.42451 33511 ft 483 kts 130°
2026-04-26 20:34 -51.11171 -70.38228 33797 ft 483 kts 130°
2026-04-26 20:35 -51.13194 -70.33989 34137 ft 480 kts 131°
2026-04-26 20:35 -51.15223 -70.29776 34408 ft 479 kts 131°
2026-04-26 20:35 -51.17253 -70.25573 34654 ft 478 kts 131°
2026-04-26 20:35 -51.19282 -70.21370 34934 ft 477 kts 131°
2026-04-26 20:36 -51.21301 -70.17181 35191 ft 476 kts 131°
2026-04-26 20:36 -51.23319 -70.12988 35452 ft 475 kts 132°
2026-04-26 20:36 -51.25325 -70.08811 35701 ft 475 kts 132°
2026-04-26 20:36 -51.27332 -70.04629 35974 ft 473 kts 132°
2026-04-26 20:37 -51.29299 -70.00521 36279 ft 471 kts 132°
2026-04-26 20:37 -51.31283 -69.96373 36519 ft 470 kts 132°
2026-04-26 20:37 -51.33267 -69.92216 36760 ft 469 kts 132°
2026-04-26 20:37 -51.35243 -69.88071 36939 ft 469 kts 132°
2026-04-26 20:38 -51.37220 -69.83916 36972 ft 469 kts 132°
2026-04-26 20:38 -51.41155 -69.75626 36956 ft 467 kts 132°
2026-04-26 20:39 -51.45089 -69.67313 36946 ft 468 kts 132°
2026-04-26 20:39 -51.48990 -69.59042 36965 ft 468 kts 132°
2026-04-26 20:40 -51.52905 -69.50716 36956 ft 468 kts 132°
2026-04-26 20:40 -51.56824 -69.42358 36962 ft 468 kts 132°
2026-04-26 20:41 -51.60967 -69.34389 36939 ft 456 kts 148°
2026-04-26 20:41 -51.63619 -69.31741 36972 ft 444 kts 161°
2026-04-26 20:41 -51.66375 -69.29645 36957 ft 446 kts 161°
2026-04-26 20:42 -51.72031 -69.25532 36971 ft 446 kts 162°
2026-04-26 20:42 -51.77718 -69.21521 36964 ft 446 kts 162°
2026-04-26 20:43 -51.83405 -69.17532 36962 ft 446 kts 162°
2026-04-26 20:43 -51.89094 -69.13535 36983 ft 446 kts 162°
2026-04-26 20:44 -51.94737 -69.09557 36954 ft 445 kts 162°
2026-04-26 20:44 -52.00421 -69.05540 36953 ft 446 kts 162°
2026-04-26 20:45 -52.06107 -69.01510 36953 ft 446 kts 162°
2026-04-26 20:45 -52.11751 -68.97500 36974 ft 446 kts 162°
2026-04-26 20:46 -52.17426 -68.93456 36951 ft 446 kts 162°
2026-04-26 20:46 -52.23109 -68.89394 36949 ft 446 kts 162°
2026-04-26 20:47 -52.28793 -68.85321 36943 ft 446 kts 162°
2026-04-26 20:47 -52.34470 -68.81242 36959 ft 446 kts 162°
2026-04-26 20:48 -52.40112 -68.77175 36937 ft 446 kts 162°
2026-04-26 20:48 -52.45798 -68.73066 36942 ft 446 kts 162°
2026-04-26 20:49 -52.51476 -68.68951 36932 ft 446 kts 162°
2026-04-26 20:49 -52.57160 -68.64820 36958 ft 447 kts 162°
2026-04-26 20:50 -52.62846 -68.60675 36926 ft 447 kts 162°
2026-04-26 20:50 -52.68494 -68.56547 36926 ft 447 kts 162°
2026-04-26 20:51 -52.74182 -68.52380 36926 ft 447 kts 162°
2026-04-26 20:51 -52.79866 -68.48204 36933 ft 448 kts 162°
2026-04-26 20:52 -52.85565 -68.44005 36921 ft 448 kts 162°
2026-04-26 20:52 -52.91227 -68.39825 36913 ft 448 kts 162°
2026-04-26 20:53 -52.96927 -68.35604 36908 ft 449 kts 162°
2026-04-26 20:53 -53.02622 -68.31376 36934 ft 449 kts 162°
2026-04-26 20:54 -53.08309 -68.27139 36833 ft 444 kts 162°
2026-04-26 20:54 -53.11121 -68.25041 36096 ft 444 kts 162°
2026-04-26 20:54 -53.13917 -68.22951 35348 ft 447 kts 162°
2026-04-26 20:54 -53.16757 -68.20825 34597 ft 449 kts 162°
2026-04-26 20:55 -53.19618 -68.18681 33829 ft 452 kts 161°
2026-04-26 20:55 -53.22508 -68.16511 32805 ft 459 kts 161°
2026-04-26 20:55 -53.25441 -68.14305 31783 ft 466 kts 161°
2026-04-26 20:55 -53.28385 -68.12088 30808 ft 466 kts 161°
2026-04-26 20:56 -53.31337 -68.09862 30220 ft 463 kts 160°
2026-04-26 20:56 -53.34253 -68.07660 29742 ft 457 kts 160°
2026-04-26 20:56 -53.37137 -68.05478 29136 ft 454 kts 160°
2026-04-26 20:56 -53.39960 -68.03340 28598 ft 449 kts 160°
2026-04-26 20:57 -53.42797 -68.01187 28056 ft 445 kts 160°
2026-04-26 20:57 -53.45607 -67.99053 27521 ft 442 kts 160°
2026-04-26 20:57 -53.48397 -67.96931 27024 ft 439 kts 160°
2026-04-26 20:57 -53.51166 -67.94820 26493 ft 436 kts 160°
2026-04-26 20:58 -53.53921 -67.92718 25962 ft 433 kts 160°
2026-04-26 20:58 -53.56657 -67.90628 25460 ft 430 kts 160°
2026-04-26 20:58 -53.59371 -67.88550 24967 ft 428 kts 160°
2026-04-26 20:58 -53.62072 -67.86481 24480 ft 426 kts 160°
2026-04-26 20:59 -53.64724 -67.84445 24005 ft 424 kts 160°
2026-04-26 20:59 -53.67403 -67.82387 23526 ft 422 kts 160°
2026-04-26 20:59 -53.70064 -67.80341 22979 ft 420 kts 160°
2026-04-26 20:59 -53.72711 -67.78303 22510 ft 416 kts 160°
2026-04-26 21:00 -53.75331 -67.76282 22040 ft 412 kts 160°
2026-04-26 21:00 -53.77999 -67.74710 21498 ft 401 kts 175°
2026-04-26 21:00 -53.80742 -67.74317 21086 ft 392 kts 181°
2026-04-26 21:00 -53.83441 -67.73988 20735 ft 386 kts 181°
2026-04-26 21:01 -53.86105 -67.73685 20335 ft 382 kts 181°
2026-04-26 21:01 -53.88714 -67.73399 19925 ft 379 kts 181°
2026-04-26 21:01 -53.91340 -67.73117 19513 ft 376 kts 181°
2026-04-26 21:01 -53.93941 -67.72839 19108 ft 373 kts 181°
2026-04-26 21:02 -53.96531 -67.72562 18708 ft 371 kts 181°
2026-04-26 21:02 -53.99094 -67.72288 18306 ft 368 kts 181°
2026-04-26 21:02 -54.01647 -67.72015 17858 ft 366 kts 181°
2026-04-26 21:02 -54.04176 -67.71744 17439 ft 363 kts 181°
2026-04-26 21:03 -54.06687 -67.71475 17038 ft 359 kts 181°
2026-04-26 21:03 -54.09133 -67.71212 16652 ft 356 kts 181°
2026-04-26 21:03 -54.11595 -67.70947 16261 ft 353 kts 181°
2026-04-26 21:03 -54.14037 -67.70684 15875 ft 350 kts 181°
2026-04-26 21:04 -54.16460 -67.70424 15502 ft 347 kts 181°
2026-04-26 21:04 -54.18858 -67.70165 15136 ft 344 kts 181°
2026-04-26 21:04 -54.21211 -67.69911 14776 ft 342 kts 181°
2026-04-26 21:04 -54.23574 -67.69656 14419 ft 340 kts 181°
2026-04-26 21:05 -54.25928 -67.69398 14064 ft 338 kts 182°
2026-04-26 21:05 -54.28239 -67.69149 13696 ft 337 kts 182°
2026-04-26 21:05 -54.30571 -67.68897 13267 ft 336 kts 182°
2026-04-26 21:05 -54.32893 -67.68644 12878 ft 333 kts 182°
2026-04-26 21:06 -54.35198 -67.68393 12517 ft 330 kts 182°
2026-04-26 21:06 -54.37481 -67.68145 12157 ft 327 kts 182°
2026-04-26 21:06 -54.39746 -67.67899 11784 ft 324 kts 182°
2026-04-26 21:06 -54.41989 -67.67654 11456 ft 322 kts 182°
2026-04-26 21:07 -54.44218 -67.67410 11091 ft 320 kts 182°
2026-04-26 21:07 -54.46434 -67.67168 10742 ft 318 kts 182°
2026-04-26 21:07 -54.48602 -67.66931 10449 ft 314 kts 182°
2026-04-26 21:07 -54.50742 -67.66823 10299 ft 302 kts 187°
2026-04-26 21:08 -54.52811 -67.66905 10165 ft 293 kts 187°
2026-04-26 21:08 -54.54824 -67.66965 10025 ft 285 kts 187°
2026-04-26 21:08 -54.56772 -67.67016 9897 ft 276 kts 187°
2026-04-26 21:08 -54.58682 -67.67060 9646 ft 273 kts 187°
2026-04-26 21:09 -54.60571 -67.67101 9317 ft 271 kts 187°
2026-04-26 21:09 -54.62456 -67.67142 9006 ft 270 kts 187°
2026-04-26 21:09 -54.64299 -67.67180 8716 ft 267 kts 187°
2026-04-26 21:09 -54.66153 -67.67219 8433 ft 265 kts 187°
2026-04-26 21:10 -54.67990 -67.67257 8109 ft 263 kts 187°
2026-04-26 21:10 -54.69813 -67.67298 7816 ft 260 kts 187°
2026-04-26 21:10 -54.71605 -67.67331 7606 ft 256 kts 187°
2026-04-26 21:10 -54.73368 -67.67357 7436 ft 251 kts 188°
2026-04-26 21:11 -54.75085 -67.67406 7230 ft 245 kts 188°
2026-04-26 21:11 -54.76798 -67.67439 7220 ft 249 kts 188°
2026-04-26 21:11 -54.78533 -67.67486 7153 ft 248 kts 188°
2026-04-26 21:11 -54.80141 -67.68255 6844 ft 237 kts 218°
2026-04-26 21:12 -54.81231 -67.70205 6603 ft 225 kts 245°
2026-04-26 21:12 -54.81731 -67.72703 6448 ft 216 kts 260°
2026-04-26 21:12 -54.82009 -67.75214 6290 ft 208 kts 263°
2026-04-26 21:12 -54.82209 -67.77648 6189 ft 201 kts 265°
2026-04-26 21:13 -54.82363 -67.80070 6054 ft 204 kts 266°
2026-04-26 21:13 -54.82491 -67.82559 5860 ft 209 kts 268°
2026-04-26 21:13 -54.82605 -67.85063 5658 ft 205 kts 268°
2026-04-26 21:13 -54.82706 -67.87519 5312 ft 204 kts 268°
2026-04-26 21:14 -54.82803 -67.89940 5078 ft 203 kts 268°
2026-04-26 21:14 -54.82902 -67.92345 4825 ft 196 kts 268°
2026-04-26 21:14 -54.82990 -67.94631 4573 ft 187 kts 269°
2026-04-26 21:14 -54.83070 -67.96790 4341 ft 177 kts 269°
2026-04-26 21:15 -54.83149 -67.98906 4031 ft 176 kts 270°
2026-04-26 21:15 -54.83230 -68.01040 3739 ft 177 kts 270°
2026-04-26 21:15 -54.83313 -68.03117 3435 ft 164 kts 269°
2026-04-26 21:15 -54.83390 -68.04975 3162 ft 144 kts 272°
2026-04-26 21:16 -54.83448 -68.06579 2932 ft 128 kts 273°
2026-04-26 21:16 -54.83505 -68.08114 2733 ft 133 kts 273°
2026-04-26 21:16 -54.83546 -68.09772 2307 ft 136 kts 268°
2026-04-26 21:16 -54.83622 -68.11447 2090 ft 147 kts 268°
2026-04-26 21:17 -54.83703 -68.13361 1409 ft 161 kts 268°
2026-04-26 21:17 -54.83772 -68.15072 1565 ft 141 kts 269°
2026-04-26 21:17 -54.83840 -68.16881 968 ft 156 kts 268°
2026-04-26 21:17 -54.83908 -68.18544 998 ft 132 kts 270°
2026-04-26 21:18 -54.83962 -68.20163 680 ft 135 kts 269°
2026-04-26 21:18 -54.84007 -68.21854 548 ft 144 kts 265°
2026-04-26 21:18 -54.84086 -68.23589 539 ft 141 kts 265°
2026-04-26 21:18 -54.84145 -68.25266 343 ft 138 kts 264°
2026-04-26 21:19 -54.84217 -68.26908 161 ft 135 kts 261°
2026-04-26 21:19 -54.84291 -68.28442 85 ft 112 kts 264°
2026-04-26 21:19 -54.84329 -68.29388 88 ft 50 kts 265°
2026-04-26 21:19 -54.84340 -68.29850 90 ft 35 kts 262°
2026-04-26 21:20 -54.84357 -68.30274 83 ft 36 kts 268°
2026-04-26 21:20 -54.84375 -68.30701 84 ft 35 kts 266°
2026-04-26 21:20 -54.84370 -68.30922 94 ft 11 kts 305°
2026-04-26 21:20 -54.84305 -68.30966 87 ft 11 kts 360°
2026-04-26 21:21 -54.84221 -68.30971 85 ft 13 kts 351°
2026-04-26 21:21 -54.84133 -68.30989 85 ft 11 kts 348°
2026-04-26 21:21 -54.84093 -68.31090 87 ft 10 kts 278°
2026-04-26 21:21 -54.84061 -68.31165 85 ft 8 kts 342°
2026-04-26 21:22 -54.84030 -68.31175 87 ft 4 kts 348°
2026-04-26 21:22 -54.84029 -68.31176 85 ft 0 kts 348°